Weather History for Tijuana, Mexico

Change the Weather History Date:

Sunday, March 31, 2013

  Actual Average Record
Temperature  
Mean Temperature 62 °F -  
Max Temperature 71 °F 65 °F 86 °F (2011)
Min Temperature 53 °F 49 °F 46 °F (1998)
Degree Days  
Heating Degree Days 3    
Growing Degree Days 12 (Base 50)    
Moisture  
Dew Point 50 °F    
Average Humidity 72    
Maximum Humidity 94    
Minimum Humidity 41    
Precipitation  
Precipitation 0.00 in - - ()
Sea Level Pressure  
Sea Level Pressure 30.14 in    
Wind  
Wind Speed 5 mph ()    
Max Wind Speed 16 mph    
Max Gust Speed -    
Visibility 5.9 miles    
Events      
Averages and records for this station are not official NWS values.
T = Trace of Precipitation, MM = Missing Value Source: Averaged Metar Reports

Daily Weather History Graph

Daily Weather History Graph

Search for Another Location

Airport:

Trip Planner

Search our weather history database for the weather conditions in past years. The results will help you decide how hot, cold, wet, or windy it might be!

Date:

Astronomy

Mar. 31, 2013 Rise Set
Actual Time 6:36 AM PDT 7:07 PM PDT
Civil Twilight 6:12 AM PDT 7:32 PM PDT
Nautical Twilight 5:43 AM PDT 8:01 PM PDT
Astronomical Twilight 5:13 AM PDT 8:30 PM PDT
Moon No Moon Rise 9:43 AM PDT (3/31)
Length of Visible Light 13h 20m
Length of Day
12h 30m
Waning Gibbous, 76% of the Moon is Illuminated
Mar 31
Waning Gibbous
Apr 2
Last Quarter
Apr 10
New
Apr 18
First Quarter
Apr 25
Full

Hourly Weather History & Observations

Time (PDT) Temp. Dew Point Humidity Pressure Visibility Wind Dir Wind Speed Gust Speed Precip Events Conditions
12:40 AM 53.6 °F 50.0 °F 88% 30.14 in 6.0 mi Calm Calm - N/A   Scattered Clouds
1:40 AM 55.4 °F 51.8 °F 88% 30.15 in 5.0 mi West 3.5 mph - N/A   Mostly Cloudy
2:40 AM 53.6 °F 51.8 °F 94% 30.15 in 4.0 mi Calm Calm - N/A   Overcast
3:41 AM 55.4 °F 50.0 °F 82% 30.14 in 5.0 mi North 4.6 mph - N/A   Overcast
4:42 AM 55.4 °F 50.0 °F 82% 30.17 in 5.0 mi North 5.8 mph - N/A   Overcast
5:40 AM 55.4 °F 48.2 °F 77% 30.13 in 5.0 mi West 3.5 mph - N/A   Overcast
6:44 AM 55.4 °F 48.2 °F 77% 30.14 in 6.0 mi NW 6.9 mph - N/A   Overcast
7:41 AM 55.4 °F 48.2 °F 77% 30.19 in 6.0 mi North 3.5 mph - N/A   Overcast
8:42 AM 55.4 °F 48.2 °F 77% 30.16 in 6.0 mi North 4.6 mph - N/A   Mostly Cloudy
9:40 AM 59.0 °F 48.2 °F 67% 30.17 in 6.0 mi Calm Calm - N/A   Scattered Clouds
10:25 AM 62.6 °F 48.2 °F 59% 30.17 in 6.0 mi WNW 4.6 mph - N/A   Clear
10:40 AM 64.4 °F 48.2 °F 56% 30.18 in 6.0 mi WSW 6.9 mph - N/A   Clear
11:41 AM 68.0 °F 48.2 °F 49% 30.17 in 6.0 mi SW 6.9 mph - N/A   Clear
12:40 PM 69.8 °F 48.2 °F 46% 30.14 in 7.0 mi SW 8.1 mph - N/A   Scattered Clouds
1:40 PM 71.6 °F 46.4 °F 41% 30.16 in 7.0 mi WNW 9.2 mph - N/A   Scattered Clouds
2:47 PM 69.8 °F 48.2 °F 46% 30.11 in 7.0 mi WSW 15.0 mph - N/A   Scattered Clouds
3:44 PM 68.0 °F 50.0 °F 52% 30.11 in 7.0 mi West 12.7 mph - N/A   Scattered Clouds
4:45 PM 64.4 °F 50.0 °F 59% 30.14 in 7.0 mi West 16.1 mph - N/A   Scattered Clouds
5:51 PM 62.6 °F 50.0 °F 63% 30.09 in 7.0 mi WNW 10.4 mph - N/A   Mostly Cloudy
6:50 PM 60.8 °F 51.8 °F 72% 30.09 in 7.0 mi WNW 13.8 mph - N/A   Mostly Cloudy
7:45 PM 59.0 °F 51.8 °F 77% 30.14 in 6.0 mi West 6.9 mph - N/A   Mostly Cloudy
8:44 PM 57.2 °F 53.6 °F 88% 30.12 in 6.0 mi WNW 8.1 mph - N/A   Mostly Cloudy
9:40 PM 57.2 °F 51.8 °F 82% 30.12 in 6.0 mi West 5.8 mph - N/A   Mostly Cloudy
10:30 PM 57.2 °F 53.6 °F 88% 30.15 in 5.0 mi West 12.7 mph - N/A   Mostly Cloudy
10:41 PM 57.2 °F 53.6 °F 88% 30.17 in 4.0 mi West 9.2 mph - N/A   Mostly Cloudy
11:40 PM 57.2 °F 53.6 °F 88% 30.15 in 6.0 mi West 5.8 mph - N/A   Mostly Cloudy